Location: Luxembourg
(49.6117°N, 6.1300°E)
Time: 06:27:03
(UTC+01:00)

Envisat - Pass Details

Date: 28 January 2019
Orbit: 764 x 766 km, 98.2° (Epoch: 16 February)

Event Time Altitude Azimuth Distance (km) Brightness Sun altitude
Rises 20:46:08 0° 217° (SW) 3,223 6.5 -32.6°
Reaches altitude 10° 20:49:34 10° 242° (WSW) 2,303 6.0 -33.2°
Maximum altitude 20:52:15 14° 274° (W) 2,025 5.9 -33.6°
Drops below altitude 10° 20:54:56 10° 306° (NW) 2,312 6.2 -34.0°
Sets 20:58:24 0° 331° (NNW) 3,244 6.8 -34.6°
